Regional Weather Roundup
Issued by NWS Wakefield, VA

Home | Current Version | Previous Version | Text Only | Print | Product List | Glossary Off
Versions: 1 2 3 4 5 6 7 8 9 10 11 12 13 14 15 16 17 18 19 20 21 22 23 24 25 26 27 28 29 30 31 32 33 34 35 36 37 38 39 40 41 42 43 44 45 46 47 48 49 50

000
ASUS41 KAKQ 292113
RWRAKQ

REGIONAL WEATHER ROUNDUP
NATIONAL WEATHER SERVICE WAKEFIELD VA
500 PM EDT SAT AUG 29 2015

Note: "fair" indicates few or no clouds below 12,000 feet with no
significant weather and/or obstructions to visibility. * = Denotes
station may not report precipitation (e.g., rain,snow,etc.),
thunder or fog.

VAZ042-051-052>054-056-292200-
NORTHERN VIRGINIA

CITY           SKY/WX    TMP DP  RH WIND       PRES   REMARKS
WASH NATIONAL  PTSUNNY   88  64  44 S12       30.11F
DULLES         PTSUNNY   86  64  47 SW9       30.11F
FORT BELVOIR   FAIR      86  63  44 VRB6      30.11F
QUANTICO       FAIR      82  68  62 S9        30.11F
FREDERICKSBRG* FAIR      87  62  42 S8        30.11F
STAFFORD*      FAIR      84  60  44 S8        30.15F
WARRENTON      FAIR      88  64  45 S6        30.10F
CULPEPER*      FAIR      84  63  49 S5        30.11F
MANASSAS*      SUNNY     84  64  51 SE10      30.11F
LEESBURG*      FAIR      90  66  45 SW8       30.11F
WINCHESTER     FAIR      88  63  42 S8        30.12S
FRONT ROYAL*   CLOUDY    88  66  48 SE7       30.10F
LURAY*         CLOUDY    82  63  51 SE5       30.11F
$$

VAZ048-049-060>072-079>083-292200-
CENTRAL AND SOUTH CENTRAL VIRGINIA

CITY           SKY/WX    TMP DP  RH WIND       PRES   REMARKS
RICHMOND       CLOUDY    84  62  47 SE9       30.13F
CHESTERFIELD*  FAIR      82  57  42 SW6       30.15F
PETERSBURG*    FAIR      83  68  62 S3        30.15F
HANOVER        FAIR      81  63  54 SE3       30.14F
TAPPAHANNOCK*  FAIR      83  59  42 CALM      30.14F
QUINTON*       FAIR      83  63  51 S5        30.14S
CHARLOTTSVILLE FAIR      83  62  49 S12       30.12F
GORDONSVILLE*  FAIR      84  63  48 SW8       30.12S
ORANGE*        FAIR      86  61  42 S6        30.13F
LOUISA*        FAIR      84  64  51 S5        30.12F
BUMPASS*       FAIR      82  64  53 CALM      30.13F
FARMVILLE*     FAIR      85  58  39 S9        30.13F
CREWE*         FAIR     N/A N/A N/A CALM      30.15S
FORT PICKETT*  FAIR      81  62  52 S12G17    30.15F
CHASE CITY*    FAIR      86  62  44 SW3       30.15F
CLARKSVILLE*   FAIR      82  61  47 SE3       30.15F
SOUTH HILL*    FAIR      82  62  50 CALM      30.21F
LAWRENCEVILLE* FAIR      79  68  69 CALM      30.15F
EMPORIA*       FAIR      81  63  54 CALM      30.16F
$$

VAZ088>098-292200-
SOUTHEAST VIRGINIA

CITY           SKY/WX    TMP DP  RH WIND       PRES   REMARKS
NORFOLK        FAIR      81  60  48 E9        30.15F
VIRGINIA BEACH CLOUDY    81  61  50 E12       30.15F
NORFOLK NAVAL  PTSUNNY   80  61  52 E8        30.17F
WEST POINT*    FAIR      83  61  46 SE7       30.16S
SALUDA*        FAIR      80  64  56 S7        30.14F
NEWPORT NEWS   FAIR      81  61  50 SE9       30.15F
LANGLEY AFB    FAIR      80  61  52 E10       30.15F
FORT EUSTIS    FAIR      82  62  51 S7        30.13F
WILLIAMSBURG*  FAIR      86  66  51 SE7       30.16S
HR EXEC AP*      N/A     82  61  47 SE9       30.17S
FRANKLIN*      FAIR      83  61  46 E7        30.14F
WAKEFIELD      FAIR      86  61  42 VRB3      30.14F
$$

VAZ020-022-025-037-045-292200-
WEST CENTRAL AND SOUTHWEST VIRGINIA

CITY           SKY/WX    TMP DP  RH WIND       PRES   REMARKS
STAUNTON*      FAIR      87  60  39 S13       30.15F
WAYNESBORO*    FAIR      83  63  52 S8        30.15F
HOT SPRINGS VA FAIR      73  58  59 S3        30.27F
LYNCHBURG      FAIR      82  59  45 SW8       30.16F
DANVILLE       FAIR      85  57  38 VRB3      30.16F
SOUTH BOSTON*  FAIR      85  56  37 S5        30.15F
MARTINSVILLE   FAIR      84  58  40 S5        30.19F
ROANOKE        CLOUDY    81  62  52 S9        30.17F
BLACKSBURG     FAIR      78  63  60 W5        30.24F
DUBLIN*        FAIR      81  58  45 S6        30.22F
MARION*        FAIR      77  59  54 CALM      30.25F
HILLSVILLE*    FAIR      74  61  64 S3        30.24S
RICHLANDS*     CLOUDY    77  26  15 CALM      30.23F
WISE*          PTSUNNY   79  55  44 S7        30.23F
ABINGDON*      FAIR      80  57  45 CALM      30.20F
$$

MDZ021>025-VAZ099-100-292200-
SOUTHERN MARYLAND AND THE DELMARVA PENINSULA

CITY           SKY/WX    TMP DP  RH WIND       PRES   REMARKS
PATUXENT RIVER CLOUDY    80  60  50 SE9       30.14S
BAY BRIDGE APT   N/A     82  59  44 S12       30.12F
LEONARDTOWN    FAIR      81  61  50 CALM      30.15F
DOVER          FAIR      80  67  64 E10       30.12F
GEORGETOWN     PTSUNNY   84  61  45 S9        30.14F
EASTON         MOSUNNY   86  63  45 SW12      30.17F
CAMBRIDGE      FAIR      81  59  47 S6        30.14F
SALISBURY      FAIR      80  61  52 S8        30.14F
OCEAN CITY     FAIR      79  59  50 S8        30.16F
WALLOPS ISLAND FAIR      79  61  53 S9        30.17F
ACCOMACK*      FAIR      75  45  33 SE6       30.16F
$$

NCZ012>017-030>032-292200-
NORTH CENTRAL AND EASTERN NORTH CAROLINA

CITY           SKY/WX    TMP DP  RH WIND       PRES   REMARKS
ROANOKE RAPIDS FAIR      82  57  42 CALM      30.14F
RALEIGH        PTSUNNY   85  58  39 CALM      30.15F
ELIZABETH CITY FAIR      79  63  57 NE13      30.15F
AHOSKIE*       FAIR      82  59  45 CALM      30.14F
EDENTON*       FAIR      79  63  57 E3        30.14F
CURRITUCK*     FAIR      79  60  52 NE6       30.16F
KILL DEVIL HLS CLOUDY    79  64  59 NE7       30.13F
MANTEO         CLOUDY    77  65  66 NE12      30.13F
CAPE HATTERAS  CLOUDY    79  70  74 NE10G20   30.11F
TARBORO*       FAIR      87  58  37 CALM      30.14F
GOLDSBORO      FAIR      85  59  41 NE6       30.13F
WASHINGTON     FAIR      80  62  54 NE6       30.14S
GREENVILLE     FAIR      82  63  51 E7        30.15F
NEW BERN       FAIR      83  62  49 NE12      30.13F
WILMINGTON     CLOUDY    86  67  52 N8        30.11F
$$

VAZ048-292200-
ELSEWHERE

CITY           SKY/WX    TMP DP  RH WIND       PRES   REMARKS
HARRISBURG PA  PTSUNNY   86  64  47 S3        30.10S
BALTIMORE      PTSUNNY   83  65  54 SE9       30.10F
ANNAPOLIS      FAIR      81  63  54 S14       30.11F
ANDREWS AFB    FAIR      86  61  43 S10       30.11F
PHILADELPHIA   FAIR      87  60  40 SW12      30.12F
HENDERSON NC   FAIR      83  53  35 E5        30.16F
GREENSBORO     PTSUNNY   82  56  40 CALM      30.16F
ROCKY MOUNT    FAIR      87  53  31 N5        30.14F
$$

VAZ100-292200-
MARINE

STATION/POSITION TIME  TEMP    WIND        PRES    WAVE   SWELL
                       AIR SEA DIR/SP/G            HT/PER HT/PER
                 (UTC) (F)     (DEG/KT/KT) (MB)    (FT/S) (FT/S)
15NM E FENWICK I 2050   77 81  160/  8/ 10 1021.4F   3/10   3/10
GOOSES REEF MD   2100   80 80  170/ 16/ 19 1021.1F
POTOMAC MD       2100   80 80  170/ 14/ 16 1019.7F   1/ 3
STINGRAY PT      2000   79 80  160/ 10/ 12 1021.9F   0
JAMESTOWN VA     2100   81 82  130/ 10/ 12   N/A
CHESAPEAKE LGHT  2000   76      70/ 10/ 11 1022.3F
CAPE HENRY BUOY  2028      79                N/A     3/11   2/11
1ST LANDING BUOY 2100      79              1020.9F   2/ 5
CAPE CHARLES BUO 2026      79                N/A     3/11   3/11
OFFSHORE WE BUOY 2011      78                N/A     4/11   3/11
64NM E OF VA BCH 2050   77 77   60/ 14/ 16 1020.3F   5/11   3/11
44100 DUCK FRF   2024      78                N/A     4/11   2/11
44056 DUCK FRF   2011      79                N/A     4/11   2/11
DIAMOND SHLS NC  2050   78 82   20/ 19/ 23 1018.8F   5/11   3/11
CAPE LOOKOUT NC  2100   79      40/ 16/ 19 1019.2F
$$



USA.gov is the U.S. government's official web portal to all federal, state and local government web resources and services.